Simultaneous Nadir Overpasses (SNOs) Predictions

Prediction of SNOs between GOES-15 and NPP Satellite Orbit:

Table of predicted SNOs for the next 14.0 days since TLE Epoch: 7/15/2024
Index Date Time (GOES-15) GOES-15 Lat,Lon NPP Lat,Lon Distance(km) Time Diff (sec)
1 07/15/2024 09:05:17 0.27, 61.12 1.18, 65.05 448.88 80
2 07/16/2024 21:24:27 -0.30, 61.18 0.01, 59.78 160.24 80
3 07/17/2024 21:08:23 -0.29, 61.19 -1.00, 64.30 355.17 80
4 07/19/2024 09:27:41 0.33, 61.14 -0.17, 58.99 246.07 80
5 07/20/2024 09:11:38 0.32, 61.15 0.84, 63.51 269.18 80
6 07/21/2024 21:30:47 -0.35, 61.22 0.33, 58.24 340.52 80
7 07/22/2024 21:14:44 -0.34, 61.23 -0.69, 62.76 174.34 80
8 07/24/2024 09:34:02 0.36, 61.20 -0.48, 57.44 427.88 80
9 07/25/2024 09:17:59 0.35, 61.21 0.55, 61.97 87.26 80
10 07/27/2024 21:21:03 -0.37, 61.29 -0.36, 61.22 7.68 80
